Wind_Speed
21 21 21 21 21 21 21 21 21 22 24 25 25 26 26 27 28 29 30 29 29 29 28 28 28 28 28 29 29 28 28 28 28 28 28 28 28 28 28 28 28 28 28 28 28 28 28 28 28 28 28 27 27 27 26 25 25 25 25 25 25 25 25 25 26 25 26 26 26 27 27 27 27 26 25 25 25 25 24 23 22 21 21 21 21 21
21 22 21 20 20 21 21 21 21 22 23 25 26 26 27 28 29 29 29 28 27 26 26 27 27 27 28 29 29 29 28 28 28 28 28 28 28 29 29 29 29 29 29 28 28 28 28 28 28 27 27 27 27 26 25 25 25 25 25 25 24 24 24 24 24 24 24 24 25 25 26 26 26 26 26 25 25 25 24 23 23 22 22 22 22 22
22 21 20 20 19 20 21 22 22 22 24 25 26 26 27 28 29 28 27 26 26 25 25 26 26 27 28 29 29 29 28 28 28 28 28 28 29 29 29 29 29 29 29 28 28 28 28 28 27 27 27 27 26 25 24 24 23 23 24 24 23 23 23 23 23 23 23 23 24 24 24 25 25 25 25 25 25 24 24 24 23 23 23 23 23 23
21 20 20 20 20 20 21 22 23 24 24 25 25 26 26 27 27 26 26 26 26 26 26 26 27 27 28 29 29 29 28 28 28 28 28 28 28 29 29 29 29 29 28 28 27 27 28 28 28 28 27 27 26 25 24 23 22 21 21 21 22 22 23 23 23 23 23 23 23 23 24 24 24 24 24 24 24 23 23 23 23 22 22 22 22 22
20 20 20 20 21 21 22 22 23 23 24 24 24 25 25 25 25 25 25 25 26 26 27 27 27 27 28 28 29 29 28 28 28 28 28 28 28 29 29 29 29 29 28 28 27 28 28 29 29 29 28 27 26 25 24 23 21 20 19 20 21 21 22 22 22 22 22 22 23 23 23 23 23 23 23 23 22 22 22 22 22 21 21 21 21 21
21 20 21 21 21 22 23 22 22 22 23 23 23 23 23 24 24 25 25 25 26 27 27 27 27 27 27 28 28 28 27 27 27 27 27 27 27 28 29 29 29 29 28 28 28 28 29 29 29 28 27 27 25 24 23 21 19 18 18 19 20 21 21 22 22 21 21 21 21 21 21 21 22 22 22 22 22 21 21 21 21 21 20 20 20 19
22 22 22 22 22 21 21 21 21 21 22 22 23 23 23 24 24 25 25 26 27 27 27 27 26 26 26 26 26 26 26 26 26 26 26 26 26 27 28 28 28 28 28 28 28 28 28 27 26 26 25 24 23 21 19 18 16 17 18 20 21 21 21 21 21 21 20 20 20 20 20 21 21 21 21 21 21 21 21 20 20 20 20 19 19 19
24 24 22 21 21 21 21 21 20 20 21 22 22 23 24 25 24 25 26 26 27 26 26 25 24 24 23 24 24 24 24 24 24 25 25 26 27 28 28 28 28 27 26 26 25 25 24 24 23 23 22 21 20 18 16 15 16 17 20 21 22 22 22 21 21 20 20 20 20 20 20 20 20 20 20 20 20 20 20 20 20 20 19 19 19 18
22 21 20 19 20 21 21 21 20 20 20 21 22 23 24 25 26 25 25 24 24 23 22 22 22 22 22 22 23 23 24 24 24 25 26 27 29 30 30 28 26 24 23 22 21 21 21 22 22 21 20 18 17 17 16 16 17 19 21 22 23 23 23 22 21 20 20 19 19 19 19 19 19 19 20 20 20 20 20 20 20 19 19 19 19 19
19 19 21 21 20 19 19 20 21 21 21 22 23 23 23 24 25 25 23 21 20 20 20 21 22 23 24 24 24 25 25 26 26 27 28 29 30 29 28 25 22 20 19 19 19 20 22 23 23 22 20 19 18 19 19 19 20 21 22 23 23 23 23 23 23 22 22 21 20 19 19 19 19 19 19 20 20 20 20 20 20 19 19 19 19 19
20 21 21 21 20 18 18 20 22 22 23 23 24 23 22 21 21 20 19 19 19 21 22 23 24 24 25 26 26 25 25 27 29 29 30 30 28 26 23 20 18 18 18 19 20 22 24 26 26 24 22 21 21 21 22 22 23 23 23 23 23 24 24 24 24 24 24 23 22 21 19 19 18 19 19 19 20 20 20 20 20 20 20 20 20 20
21 21 20 19 19 19 20 21 22 22 21 21 20 19 18 17 17 18 20 21 23 24 25 25 25 25 25 25 26 25 24 26 27 28 28 26 24 20 18 17 18 19 20 21 23 25 27 27 26 24 22 22 22 23 23 24 24 24 24 24 25 25 25 25 25 25 25 24 24 22 21 19 19 18 18 19 19 20 20 21 21 21 21 20 20 20
20 19 18 18 18 19 19 20 20 19 18 17 16 16 17 19 20 21 23 25 25 25 25 25 25 25 25 25 25 24 23 24 24 23 22 19 18 18 19 21 22 23 24 25 26 27 28 26 25 23 23 23 24 24 24 24 24 25 25 25 26 26 26 27 27 27 26 26 25 24 23 21 20 19 18 18 19 20 20 21 21 21 21 21 21 21
18 18 17 17 18 18 19 19 19 19 18 18 18 18 20 22 23 23 24 25 25 24 23 23 24 25 25 24 23 22 22 21 20 18 18 18 20 22 24 25 26 27 26 26 26 25 25 25 25 25 25 25 25 25 25 25 25 25 26 26 27 27 28 28 28 28 28 27 27 26 25 23 21 20 19 19 19 19 20 20 21 21 22 22 21 21
17 17 17 17 18 19 20 20 20 20 21 20 20 21 22 23 24 23 23 23 22 22 21 22 23 25 24 23 22 21 20 17 16 17 19 23 26 27 27 26 25 25 24 23 23 23 23 23 24 24 25 25 25 25 25 25 25 26 26 27 27 28 28 29 28 28 28 28 28 27 26 25 23 21 20 19 20 20 20 21 21 22 22 22 22 21
17 17 17 18 19 21 21 21 21 22 22 22 21 21 21 22 23 22 20 18 19 19 20 20 21 22 23 22 21 19 17 16 17 19 22 25 27 27 24 22 22 22 22 22 23 23 23 23 23 24 24 24 25 24 24 24 25 26 26 27 27 28 28 27 27 27 27 27 27 26 25 24 23 22 21 20 20 20 21 21 22 22 22 22 22 21
17 17 17 17 19 20 22 22 22 22 22 21 21 21 21 21 20 18 17 18 19 19 19 18 15 14 16 21 20 16 14 16 19 21 22 23 24 24 22 21 21 22 24 24 24 24 24 23 23 23 24 24 24 24 23 24 25 25 26 26 26 27 27 27 27 27 27 27 27 26 25 24 23 22 21 21 21 21 20 21 21 22 22 22 22 21
19 19 19 19 20 21 23 22 22 22 22 20 20 21 21 21 20 19 20 21 21 20 20 20 17 14 12 14 14 13 14 18 19 20 21 22 23 24 22 22 22 23 24 25 25 24 24 23 23 24 24 24 23 23 24 24 25 26 26 26 27 27 27 27 27 27 27 27 27 26 26 25 24 23 22 21 21 21 21 21 21 22 22 22 22 21
20 20 20 20 21 22 22 21 21 21 20 19 19 19 20 20 21 22 23 23 22 22 22 20 19 16 12 10 12 16 20 21 21 20 20 21 23 23 23 22 23 24 24 25 25 24 23 23 23 23 24 23 23 23 24 25 26 26 26 27 27 28 28 28 29 29 28 28 27 26 26 26 25 25 24 23 22 22 22 22 21 21 22 22 22 21
19 20 19 20 21 21 21 21 21 21 20 20 20 20 21 22 24 24 24 24 24 24 22 19 15 11 11 14 20 23 24 22 20 19 19 20 22 23 22 22 22 24 25 25 24 23 22 22 22 22 23 23 23 24 25 25 26 27 27 27 28 28 29 29 30 30 29 29 28 27 26 26 26 26 25 25 24 23 22 22 22 21 22 22 22 21
21 22 23 23 22 22 23 25 25 24 24 23 22 21 21 22 23 24 25 26 25 22 18 12 10 12 15 19 22 23 23 21 19 18 19 20 22 23 22 22 22 23 24 24 23 21 21 21 22 23 23 24 24 25 25 26 26 27 27 27 28 28 29 29 29 29 28 27 27 26 26 26 26 26 26 26 25 24 23 23 22 22 22 23 22 21
24 25 26 26 26 26 27 28 28 27 26 25 23 21 21 22 23 25 26 24 20 16 12 12 14 17 20 21 22 23 22 21 20 19 18 18 21 23 23 23 22 22 22 21 20 20 21 22 23 24 24 25 25 25 26 26 26 27 27 27 27 27 27 27 26 26 25 24 24 24 24 25 26 26 26 26 26 26 25 24 23 23 23 23 22 21
29 29 30 31 31 31 31 31 30 29 27 25 24 22 22 23 24 25 23 20 16 14 15 17 19 21 21 21 22 22 22 20 20 19 17 14 17 22 23 22 21 20 20 20 21 22 23 24 24 25 25 25 25 25 25 25 26 26 26 26 26 25 25 24 23 22 21 21 22 22 23 23 24 25 25 26 26 26 25 24 23 22 22 22 22 21
31 31 32 31 30 30 29 28 27 26 26 25 24 24 24 25 25 24 21 18 17 17 18 19 20 20 20 21 21 21 20 19 18 18 16 15 18 21 22 21 20 20 20 21 22 23 24 24 24 25 25 25 24 24 24 24 25 25 24 24 24 24 24 23 21 20 20 21 22 22 22 22 23 23 23 23 23 23 23 22 22 21 21 22 22 21
27 27 26 25 24 24 24 24 24 25 26 26 25 24 24 24 23 22 20 19 18 17 17 18 17 18 18 18 18 18 18 18 17 17 16 15 17 20 20 19 19 20 21 22 22 23 23 24 24 24 24 24 24 24 23 23 23 23 23 23 24 24 24 23 22 21 21 21 21 21 21 22 22 23 23 23 21 19 18 17 18 19 20 21 22 21
24 23 22 22 22 23 25 26 27 27 27 26 24 23 22 22 22 22 20 18 17 16 15 15 14 15 17 17 17 17 18 18 17 16 16 15 16 18 19 18 18 19 20 21 22 22 23 23 24 24 24 24 23 23 22 21 21 21 22 23 24 25 24 24 23 23 22 22 22 21 21 21 21 22 23 23 21 18 15 13 14 15 17 18 19 19
21 21 21 22 24 25 26 26 26 26 25 23 22 21 21 22 21 20 17 16 15 14 14 12 11 13 15 15 15 17 18 18 17 16 15 15 15 15 16 17 18 19 20 21 22 22 22 22 23 23 22 23 23 22 21 20 21 22 23 24 25 25 25 24 24 23 23 23 22 22 21 20 20 21 22 22 20 18 15 13 13 14 14 15 15 15
19 19 21 22 24 25 25 25 24 23 22 21 21 21 20 21 20 17 16 15 15 14 13 11 10 10 11 13 15 17 19 18 16 15 15 14 13 13 15 17 18 19 20 21 21 22 21 21 21 21 21 21 21 21 21 21 22 24 25 25 25 24 24 24 23 23 22 22 22 22 21 20 20 20 21 21 20 18 15 14 14 14 15 15 15 14
20 21 23 23 24 24 24 23 22 21 20 20 21 21 21 21 20 18 17 16 14 13 12 13 13 12 12 14 17 18 18 17 15 15 16 15 14 14 17 18 18 18 18 18 19 20 20 19 19 19 20 20 20 20 22 23 24 25 25 25 24 24 23 23 23 22 22 22 22 22 21 20 20 20 20 20 20 18 17 15 14 14 15 16 15 15
22 23 24 24 24 24 23 22 21 21 21 21 21 22 22 21 20 18 16 14 13 13 13 14 15 15 15 15 15 14 14 16 16 15 16 15 14 15 17 18 17 16 15 13 12 12 15 19 20 19 19 19 20 21 23 24 24 24 24 24 24 24 23 23 22 22 22 22 22 21 21 20 20 20 20 20 20 19 18 16 15 15 15 15 15 15
22 22 23 23 23 23 22 22 22 22 22 22 22 22 21 19 17 15 14 13 12 13 15 16 16 17 16 12 8 6 8 15 18 17 17 14 13 14 16 15 14 14 13 10 6 3 9 15 19 20 19 20 21 22 22 22 22 22 23 23 23 23 23 22 22 22 22 22 21 21 21 20 20 20 20 20 19 19 18 17 15 15 15 15 15 15
21 22 22 22 22 22 22 22 22 22 22 23 22 21 19 16 14 13 12 12 13 14 15 16 17 17 16 13 9 7 10 17 19 18 17 14 13 14 14 12 12 13 14 13 10 7 5 8 15 22 22 22 22 22 22 21 21 21 21 21 22 22 23 22 22 22 22 22 22 21 21 21 21 20 20 20 19 19 18 17 16 15 15 15 15 14
21 22 22 22 22 22 22 22 22 22 23 22 21 19 17 15 13 13 13 13 14 15 15 15 16 16 15 15 14 15 17 19 19 18 17 15 13 13 13 13 13 14 16 16 15 13 10 11 15 20 22 22 22 21 21 21 20 20 21 21 21 22 22 22 23 23 23 23 23 23 22 22 22 22 22 22 21 20 18 17 15 14 14 14 14 13
21 21 21 21 21 21 22 22 22 22 22 21 20 18 16 14 13 13 13 14 15 15 15 15 14 14 14 15 17 18 20 19 18 17 17 16 14 13 15 15 15 15 15 15 15 15 14 16 17 18 19 21 22 21 21 20 20 21 21 21 21 21 22 22 23 23 24 24 24 24 23 23 23 23 24 24 22 20 18 16 15 14 14 14 13 13
21 21 20 20 20 21 21 21 22 22 22 21 19 16 14 13 12 13 14 15 16 16 16 16 16 16 16 16 17 18 19 19 19 18 17 17 16 16 16 15 15 14 14 14 14 14 14 16 17 17 17 19 21 22 21 21 21 21 22 22 21 21 22 22 23 22 23 23 23 23 22 22 23 23 24 24 22 20 17 14 13 13 13 13 12 12
19 19 19 19 19 20 20 21 21 21 21 19 16 13 12 12 13 14 16 17 18 19 19 19 19 19 19 19 18 18 19 21 21 20 19 19 19 17 16 15 15 15 14 14 15 14 14 16 18 18 17 16 17 20 22 23 23 23 23 22 22 22 22 23 22 22 22 22 22 21 21 22 22 23 23 22 20 18 16 14 14 13 13 12 12 12
18 18 18 19 19 19 19 19 19 19 18 15 13 11 12 13 15 17 18 19 20 20 20 20 20 20 20 20 20 20 21 21 21 21 20 20 20 20 18 17 17 17 16 16 16 16 16 15 16 17 17 15 15 17 21 24 24 24 23 23 23 23 23 22 21 21 20 20 20 20 21 21 22 22 21 20 19 18 17 17 17 15 14 12 12 12
17 17 18 18 18 18 17 16 16 16 15 15 14 14 15 16 17 18 19 19 19 19 19 19 19 19 19 19 19 20 20 21 20 20 19 19 20 20 20 19 19 19 19 18 18 17 16 14 11 10 12 15 18 20 21 22 23 23 24 24 24 23 22 21 20 19 19 19 19 20 20 21 21 21 21 20 20 19 19 19 18 17 14 12 11 10
16 16 17 16 16 15 15 14 15 16 17 17 17 17 17 17 18 18 18 18 19 19 19 19 20 20 20 20 20 20 20 20 19 18 18 17 18 19 20 20 20 20 20 20 20 19 17 14 11 10 11 14 18 22 23 22 22 22 23 23 23 22 21 20 19 19 18 18 19 19 20 21 21 21 21 21 21 21 20 20 19 17 14 12 11 10
16 15 15 15 15 15 15 15 17 18 18 18 17 17 17 18 18 18 18 18 19 19 19 20 20 20 20 20 20 20 20 18 17 16 16 16 17 18 18 19 20 20 20 21 20 19 17 15 15 15 16 16 18 20 21 22 22 22 21 20 20 20 21 21 21 20 19 18 18 18 19 20 21 21 21 22 21 21 20 19 17 15 13 12 11 11
15 15 15 15 16 16 16 17 17 18 17 17 16 16 17 17 17 18 18 19 19 20 20 20 20 20 20 20 20 18 16 13 12 13 14 15 15 16 18 19 19 20 20 20 20 19 18 17 16 17 17 17 18 19 20 21 22 22 21 19 19 21 23 22 21 19 18 17 17 18 19 19 20 20 21 21 20 19 17 16 15 13 12 11 10 10
15 15 16 17 17 18 18 18 18 17 17 16 16 16 16 16 17 17 18 19 20 20 21 20 20 20 20 20 18 14 11 9 10 12 13 14 15 15 17 18 19 19 19 18 18 18 17 16 16 16 16 16 16 17 19 22 23 22 21 20 20 21 22 21 20 18 17 18 18 19 18 18 18 19 19 19 18 17 14 13 12 11 11 11 11 10
15 16 17 18 18 18 18 18 18 17 17 16 15 15 15 16 16 17 18 18 19 19 19 20 20 19 18 16 13 10 9 10 12 14 14 14 14 15 16 17 18 19 18 17 17 17 17 16 16 15 16 17 17 17 19 20 21 21 21 21 20 18 16 17 19 20 19 19 18 18 17 16 16 16 17 16 16 14 13 11 10 9 9 9 9 8
16 17 17 18 18 17 17 17 17 17 16 15 14 14 15 16 17 17 17 17 18 19 19 20 20 19 16 12 10 10 12 14 15 16 15 15 14 14 16 17 18 18 19 18 17 16 17 18 18 18 18 18 17 18 18 19 19 20 20 21 20 18 15 16 19 20 19 18 17 16 15 14 15 15 15 15 15 14 13 12 10 8 7 6 6 6
16 16 16 16 16 15 15 16 16 16 15 14 13 13 15 16 17 17 17 17 17 18 19 20 18 15 11 9 9 12 15 17 17 17 16 15 15 15 15 16 17 18 18 19 19 18 18 18 19 19 19 18 18 18 17 17 17 18 18 19 19 19 19 18 18 18 17 17 17 16 15 15 15 15 15 16 16 16 15 13 10 8 6 6 6 7
15 15 15 15 15 14 14 15 15 15 14 13 13 14 15 16 16 16 16 16 16 17 18 19 17 12 9 9 11 14 16 17 18 18 18 17 16 16 15 16 16 17 18 18 19 19 19 19 19 20 20 19 19 18 17 17 16 15 16 17 18 18 18 18 17 17 17 17 17 16 16 16 16 16 17 17 18 18 16 13 9 6 5 5 6 7
14 14 14 14 14 14 14 14 14 13 13 13 14 14 15 15 16 15 15 15 15 16 17 17 14 11 10 11 12 14 16 17 18 18 18 18 17 17 16 16 16 17 17 18 19 19 20 20 21 21 20 19 18 17 17 16 15 13 13 15 16 17 17 17 17 17 17 16 16 16 16 17 17 18 17 17 17 17 16 13 9 6 5 5 6 7
13 14 13 13 13 13 13 13 13 13 13 14 14 14 14 14 14 14 14 15 15 16 16 14 12 10 10 11 13 14 15 15 16 17 18 18 18 18 18 18 18 18 18 18 19 19 19 18 17 17 18 18 17 16 15 14 13 12 13 15 15 16 16 17 18 18 17 16 14 14 14 16 16 16 16 16 15 15 15 13 10 8 7 7 8 9
12 12 12 13 13 13 13 14 14 14 14 14 14 14 13 13 13 13 14 15 15 16 15 13 10 9 10 12 13 14 14 15 15 16 17 18 18 18 18 18 19 19 19 19 19 20 19 17 14 11 11 12 13 11 10 11 12 13 14 15 15 15 15 17 19 19 18 16 13 12 13 14 15 15 15 13 13 13 14 13 11 10 10 10 11 11
11 12 12 12 12 13 13 14 14 15 15 14 13 12 12 12 13 14 14 15 15 15 14 12 10 10 10 12 13 14 14 14 15 16 17 17 17 17 18 18 19 19 19 20 20 20 20 18 14 10 8 7 8 10 12 14 15 15 15 15 16 16 15 17 18 20 19 16 13 12 12 13 14 14 14 13 12 13 14 14 14 13 12 12 13 13
11 11 11 11 12 12 13 14 14 14 14 14 12 11 11 11 13 14 14 15 15 15 14 13 11 9 10 11 12 12 13 14 15 15 16 16 16 17 17 17 17 18 18 18 18 17 17 15 14 12 11 10 12 14 16 16 16 15 15 16 16 16 15 16 17 19 18 15 13 12 12 13 14 14 14 13 13 12 13 15 16 16 14 13 13 13
Wind_Direction
293 296 299 301 303 304 304 306 308 309 309 308 308 307 306 305 304 303 302 302 302 302 301 301 302 302 302 302 301 301 301 301 302 302 302 302 302 303 302 302 302 301 301 301 301 301 300 300 300 300 300 301 300 300 299 297 296 294 293 292 290 289 288 287 286 286 286 285 285 285 284 283 283 282 280 278 277 276 275 275 275 276 276 276 275 274
295 297 299 301 303 304 304 306 307 308 308 307 306 305 305 304 303 302 302 302 301 301 300 300 300 300 300 300 299 299 299 300 300 301 301 301 302 302 302 302 301 301 300 300 299 299 299 300 300 300 299 300 300 300 299 299 298 297 296 295 294 293 292 291 290 289 288 286 286 285 285 285 285 285 284 282 281 280 279 279 278 277 277 275 274 273
297 299 299 301 303 304 305 306 307 306 305 305 304 303 303 303 302 301 301 301 301 300 299 299 299 298 297 297 297 297 297 298 299 299 300 300 301 301 302 301 301 300 299 299 299 299 300 301 301 301 300 299 299 299 298 298 297 297 297 299 299 299 298 297 296 295 294 292 290 289 287 287 287 287 287 286 285 284 284 283 281 280 278 277 275 275
296 298 300 303 304 304 303 305 306 305 304 303 302 302 303 302 301 301 301 301 301 300 299 298 297 296 295 295 295 295 296 297 298 298 299 299 300 301 301 301 300 299 298 299 300 301 302 303 302 301 300 299 298 297 296 294 294 294 296 298 299 299 300 300 299 298 296 295 293 293 292 291 290 289 288 287 287 286 285 284 282 281 279 278 278 277
295 297 301 304 304 303 303 303 303 304 303 302 302 302 303 302 301 301 301 301 301 300 299 298 296 295 294 293 293 294 295 296 297 297 298 299 300 301 302 302 300 299 298 299 301 303 304 303 302 301 299 298 297 296 294 292 292 294 297 299 300 301 302 302 301 299 296 294 292 293 294 294 294 293 291 291 290 288 286 285 284 283 281 280 279 278
294 297 300 301 301 301 301 302 302 303 303 303 302 302 302 302 301 301 301 301 300 299 298 297 295 294 292 292 292 293 294 295 296 296 297 299 301 302 302 302 300 299 299 301 303 305 304 304 302 301 300 299 298 296 295 295 296 300 304 307 308 308 308 307 306 303 300 297 295 295 295 295 294 294 292 293 293 291 289 287 286 286 285 284 282 281
295 296 298 298 297 297 298 299 301 302 302 303 304 304 303 303 302 301 300 299 298 298 297 296 294 293 292 293 294 294 295 295 296 297 298 300 302 303 303 302 301 300 301 303 305 306 307 307 306 305 304 303 301 300 300 302 306 311 315 317 316 314 313 311 309 307 305 303 301 299 297 296 295 293 292 292 292 291 290 288 288 288 287 287 286 285
294 294 294 295 296 297 297 297 298 300 301 303 304 305 304 304 302 301 299 298 296 295 295 296 295 295 295 296 297 298 298 298 299 300 301 302 303 303 303 302 301 301 303 305 308 310 311 311 312 312 311 310 310 309 310 312 316 319 319 318 316 314 313 311 309 308 306 304 303 301 300 298 296 294 293 291 290 289 289 288 288 287 287 287 288 288
288 290 293 294 296 297 297 296 297 299 301 302 302 302 303 303 303 301 299 296 295 295 295 297 299 299 299 299 300 300 300 300 299 300 300 301 301 301 301 302 303 304 306 309 312 314 314 314 315 317 317 320 321 322 321 321 320 317 315 313 312 310 309 308 307 306 303 301 300 298 298 296 295 295 293 292 290 289 288 287 287 286 286 286 287 288
284 289 293 294 293 292 293 296 298 300 300 300 298 297 297 297 298 299 296 293 294 297 300 302 303 303 302 300 300 300 300 299 298 297 297 298 297 298 299 301 304 307 308 309 311 313 313 314 316 318 320 321 321 320 319 316 313 311 309 307 306 305 304 303 304 303 302 300 297 295 294 293 293 292 291 290 289 288 288 287 286 285 284 285 286 286
289 290 290 291 291 290 290 292 296 298 299 298 296 294 292 288 289 292 293 295 298 301 302 302 302 301 301 300 301 301 301 300 299 298 298 298 298 299 300 301 301 302 303 305 308 311 312 314 315 314 312 310 309 309 309 308 306 305 304 302 301 299 298 298 297 297 297 296 295 293 291 290 289 289 289 288 287 286 286 285 284 283 283 282 282 282
288 287 287 287 290 291 292 293 294 295 296 294 293 293 292 290 291 293 294 297 299 300 300 300 299 298 297 298 300 302 301 300 299 300 300 301 302 303 304 304 303 304 306 307 309 310 311 312 310 307 302 301 302 303 304 304 303 302 301 300 298 297 295 294 293 292 292 293 293 293 292 291 290 289 289 288 288 287 285 284 283 282 281 280 280 279
281 282 284 287 289 291 292 293 294 294 293 291 290 291 295 298 299 297 293 292 292 293 295 297 298 298 297 297 298 300 300 300 300 301 302 305 308 312 315 316 316 316 315 313 311 310 310 309 306 303 300 301 302 303 303 303 302 302 301 300 299 297 295 294 293 292 292 292 293 293 293 292 291 291 290 289 289 288 288 285 283 282 280 279 278 278
280 283 285 287 289 289 290 291 292 293 293 292 290 289 293 297 298 295 290 286 286 288 291 293 296 298 299 298 298 299 300 300 302 306 310 314 317 319 321 321 320 319 316 312 309 308 307 306 304 302 302 303 303 304 304 304 304 303 303 302 301 299 298 297 297 297 297 295 294 293 292 292 291 290 290 289 289 290 290 288 285 282 280 278 277 276
284 286 287 287 288 289 290 291 291 290 291 290 289 289 292 296 296 293 288 285 285 289 293 294 295 296 297 298 299 301 301 303 309 316 319 318 318 319 320 318 315 312 310 305 302 302 303 301 299 299 301 302 302 303 304 304 304 304 303 303 303 303 304 306 307 308 307 304 300 296 293 291 290 289 289 289 290 291 291 289 286 284 281 279 276 275
284 285 285 285 285 286 287 288 287 286 287 287 287 289 292 295 296 293 287 285 289 294 297 298 297 296 296 297 299 301 303 309 316 319 317 314 314 315 316 311 306 303 303 301 299 298 298 297 296 296 297 299 301 302 303 303 303 303 303 303 304 306 309 312 315 317 317 315 311 305 299 293 290 289 289 289 290 291 291 290 288 285 283 280 277 274
282 282 282 283 283 284 285 284 282 281 282 284 286 288 290 291 293 292 289 291 294 297 297 296 296 295 296 297 297 298 305 315 318 316 311 308 308 310 311 306 300 298 300 299 297 296 295 294 294 294 296 298 300 301 302 303 303 303 303 303 305 307 310 313 316 318 319 320 318 315 309 302 296 291 290 290 291 291 291 290 289 287 284 281 278 274
283 282 282 282 281 282 284 283 282 281 281 282 285 287 288 289 291 292 292 294 295 295 294 292 289 286 286 289 293 300 311 316 314 309 306 304 305 307 307 304 299 297 296 295 294 294 293 292 293 295 297 299 300 302 303 303 304 304 304 304 305 307 309 311 313 316 318 319 319 318 315 311 305 299 295 292 291 292 291 290 289 287 285 282 279 274
283 282 280 280 280 281 282 281 281 281 282 283 286 288 289 291 293 294 294 293 292 290 289 286 283 280 283 291 303 309 313 312 308 302 301 301 302 304 305 303 299 296 293 292 291 292 292 292 294 296 299 301 303 304 305 305 305 305 304 305 306 308 309 310 312 313 314 314 315 315 314 312 309 305 300 296 293 292 291 291 289 287 285 283 280 275
281 279 277 279 281 283 282 281 280 281 281 283 286 288 289 292 293 293 292 290 288 285 281 277 275 282 297 306 308 308 310 308 303 299 297 299 301 303 304 303 299 296 293 291 291 292 293 295 297 301 303 306 307 307 307 307 307 306 306 306 307 308 309 310 310 311 311 311 311 311 309 307 305 303 300 297 294 292 291 290 289 287 285 283 280 276
279 278 278 278 280 282 282 282 280 280 280 281 284 285 287 289 289 289 288 286 284 280 275 272 283 299 306 304 303 304 306 304 299 297 298 300 301 303 305 304 300 296 293 292 294 296 299 301 304 306 308 309 310 309 309 309 308 307 307 307 307 307 308 308 309 308 308 309 309 308 306 304 302 300 297 294 292 289 288 288 287 286 284 282 280 276
276 277 277 277 276 277 278 280 280 279 279 281 283 284 285 287 287 286 285 284 282 280 280 290 300 304 304 300 299 301 302 299 296 295 297 299 301 303 306 306 303 298 296 297 300 304 306 308 309 310 311 311 311 310 310 309 309 308 308 308 308 308 308 307 306 306 307 308 309 309 307 304 301 299 297 293 290 286 284 283 283 282 281 280 278 276
271 272 275 276 276 276 277 278 280 281 282 282 282 284 286 288 288 288 288 290 292 296 300 303 304 303 302 299 299 299 300 299 299 299 299 299 301 305 308 309 306 303 301 303 306 309 311 311 311 312 311 311 311 310 310 310 309 309 309 309 309 309 309 308 307 308 310 311 312 312 311 308 305 302 299 295 289 285 282 280 279 279 278 278 277 275
272 272 274 277 278 280 281 283 285 288 290 290 290 291 295 297 298 298 299 304 307 308 307 307 305 304 303 302 301 301 302 304 307 308 307 303 303 306 309 310 309 307 305 307 309 312 313 313 312 312 312 311 310 310 310 309 309 310 311 311 312 313 314 313 313 314 315 316 317 316 315 313 310 308 306 301 294 286 280 277 276 277 277 277 277 274
277 278 280 283 287 291 295 297 299 300 300 300 301 303 307 309 310 312 314 314 312 310 308 307 306 305 306 306 305 304 306 311 315 316 312 307 304 306 308 310 311 309 307 309 311 313 314 313 312 311 310 309 309 309 309 310 311 312 314 315 317 319 320 320 319 318 317 316 315 315 315 314 314 314 314 312 306 297 286 280 277 276 276 275 274 272
284 287 291 296 300 303 304 305 305 304 303 303 305 307 309 309 309 308 306 305 306 309 311 310 307 306 307 308 307 307 311 316 319 318 314 309 306 306 308 311 313 312 310 311 313 315 315 313 311 310 309 308 309 310 311 312 314 316 317 318 320 321 321 320 320 319 318 316 315 314 312 312 312 314 315 315 314 311 307 300 294 288 283 280 276 271
289 293 298 302 304 305 305 305 304 304 303 303 304 305 304 304 302 299 296 299 304 310 311 309 306 306 308 308 308 310 314 317 318 318 317 314 309 307 310 315 317 316 314 313 313 313 312 310 308 307 307 308 310 312 314 315 317 318 318 319 319 320 319 319 319 318 318 318 317 316 315 314 313 314 314 314 315 315 316 316 314 310 304 297 289 281
296 299 301 302 303 304 304 304 303 302 302 302 303 303 301 300 297 294 294 299 306 310 308 305 304 305 307 307 307 309 312 314 316 320 323 323 317 310 312 317 318 317 314 311 310 309 308 306 305 305 306 308 311 313 314 315 315 316 317 319 319 318 317 318 318 318 318 318 318 318 317 317 316 316 316 316 315 315 315 317 317 316 313 310 304 299
301 301 301 302 304 305 305 305 304 304 302 301 301 301 300 298 295 292 294 300 305 308 306 304 303 303 303 304 306 308 310 312 317 324 329 328 319 311 312 314 314 313 312 310 310 310 308 306 306 306 308 310 311 312 312 312 313 315 317 318 318 317 316 317 317 318 318 318 317 317 317 318 318 318 318 318 318 318 318 319 318 315 312 309 306 303
303 305 306 307 309 310 309 308 307 306 303 301 301 301 300 298 294 292 293 299 303 305 303 303 303 303 304 306 307 309 309 313 319 325 329 326 316 308 309 310 309 310 313 315 315 312 310 309 308 308 309 311 311 311 311 312 313 314 316 316 316 315 315 316 316 317 317 317 317 317 317 317 318 319 319 319 319 319 320 319 318 315 311 306 301 297
308 309 311 311 312 311 310 308 306 306 305 305 305 305 304 301 297 295 296 300 302 302 301 301 301 302 303 306 308 308 307 311 315 321 324 320 311 305 307 307 307 312 320 326 328 316 312 311 311 311 311 312 312 311 311 312 313 313 313 313 313 313 313 314 315 316 316 316 317 317 316 317 317 318 319 318 318 318 319 318 317 314 311 305 299 293
312 312 312 311 310 309 307 307 306 307 308 309 309 309 308 305 302 301 303 304 304 302 300 298 298 300 301 300 298 296 299 304 309 315 319 316 309 305 307 308 310 315 320 321 317 309 308 307 309 310 312 312 312 312 312 312 312 312 312 311 310 310 311 312 313 314 314 315 315 316 317 317 318 318 319 319 317 317 317 315 314 312 310 307 303 299
312 311 309 308 307 307 307 307 308 309 310 310 310 309 308 305 303 304 305 305 305 304 301 298 297 298 299 297 296 295 297 300 305 311 315 314 310 308 309 310 311 312 314 313 309 303 295 295 301 306 309 310 311 311 312 312 313 313 312 311 310 309 309 310 311 312 313 314 315 317 318 320 320 321 322 322 320 318 315 312 310 308 307 307 308 307
309 307 306 306 307 307 308 308 309 309 308 307 306 304 302 302 302 304 305 305 305 304 302 299 297 297 298 298 297 296 297 299 303 308 310 310 308 306 306 306 307 307 308 308 306 302 296 295 298 302 306 308 310 311 312 313 313 313 313 311 309 308 308 309 309 310 312 313 315 318 320 322 323 324 325 326 324 319 314 309 304 302 301 304 307 308
306 305 305 306 307 307 308 308 308 307 305 303 301 299 299 302 304 305 305 304 303 301 299 298 296 295 294 294 294 295 296 298 301 305 305 305 302 301 302 302 303 304 303 302 301 300 297 297 298 300 302 306 309 311 313 313 314 314 313 311 309 307 308 308 308 309 310 313 315 317 320 322 323 324 325 325 323 320 316 310 305 302 300 300 302 304
305 305 305 306 306 306 307 307 307 306 305 302 300 301 304 308 309 307 305 303 302 301 300 299 298 296 293 290 287 287 289 295 300 304 305 302 299 297 296 297 299 299 298 296 295 294 293 294 296 299 301 303 307 311 313 314 315 314 313 313 311 310 310 310 310 310 310 312 313 315 318 319 321 321 322 321 320 320 322 321 319 314 307 299 294 293
303 303 303 304 304 305 305 306 307 308 309 310 311 315 316 314 311 308 306 306 305 305 305 304 303 301 298 295 290 288 290 297 303 307 307 306 302 298 293 293 295 296 294 292 292 292 291 293 295 298 301 304 306 309 312 314 315 315 314 314 313 313 313 314 314 314 313 312 312 314 316 317 318 319 319 318 318 320 323 325 324 321 314 305 296 290
300 300 301 302 303 304 305 306 308 312 316 320 323 323 320 316 312 311 310 310 310 311 310 310 308 307 305 303 299 298 298 301 304 307 309 309 306 301 294 293 295 295 294 292 290 290 290 292 295 300 304 306 307 307 309 311 313 313 314 314 314 314 314 316 318 317 315 313 312 313 315 316 318 318 318 317 317 318 318 318 319 319 317 313 305 299
296 297 299 300 302 303 304 304 307 311 315 318 320 319 318 316 315 315 315 315 314 314 312 311 310 308 307 306 304 302 301 301 303 307 310 312 310 305 299 295 294 295 296 295 293 290 289 291 294 301 305 306 306 307 307 309 310 311 313 314 315 315 316 317 317 316 315 313 313 313 314 316 317 318 317 318 317 316 315 314 314 316 318 317 314 309
293 294 296 297 299 299 300 301 304 307 310 312 314 315 316 317 318 319 319 317 316 314 312 311 309 307 306 305 303 301 300 301 305 311 316 317 315 312 307 301 298 297 298 297 295 292 290 291 293 295 297 298 300 303 306 307 309 311 313 313 314 315 315 315 315 315 315 314 313 312 313 315 316 317 318 319 318 317 315 313 313 313 314 313 313 310
290 291 293 294 296 297 298 299 302 304 306 307 309 311 314 317 319 319 319 317 315 313 313 311 310 308 307 305 303 302 303 310 318 322 323 322 320 318 315 312 308 304 302 299 296 293 290 288 287 289 291 293 297 301 304 306 308 310 311 309 308 309 310 311 313 314 315 314 313 312 312 313 314 315 317 319 319 318 316 313 310 308 306 302 300 300
287 288 291 293 295 297 298 300 301 302 301 301 304 307 312 316 317 317 315 314 313 311 311 310 309 308 306 304 304 308 317 327 328 326 323 321 320 319 319 320 320 318 315 309 304 300 297 294 291 292 295 300 304 306 306 305 306 308 308 307 306 307 309 311 314 315 314 312 311 311 311 312 313 315 318 320 322 323 322 319 314 308 303 297 292 288
285 288 291 294 296 298 300 302 301 300 298 297 299 304 310 314 315 314 312 310 309 308 308 309 308 305 301 299 305 319 331 330 326 324 324 323 322 321 321 322 325 327 327 324 319 314 312 308 305 304 305 308 308 305 302 302 303 306 308 308 308 308 309 312 315 316 315 315 316 316 317 317 318 320 322 325 329 333 335 333 329 322 314 308 304 300
286 289 291 294 297 300 302 302 301 299 295 294 296 301 308 312 314 312 309 307 306 306 307 308 307 303 296 298 313 329 332 330 329 329 329 328 326 324 323 323 323 324 326 327 325 320 316 312 307 304 304 304 301 297 295 296 299 303 307 310 312 312 311 314 319 322 326 329 332 334 333 331 330 329 330 335 340 344 344 342 339 338 339 341 339 335
284 286 289 292 295 298 300 300 300 297 294 292 295 301 308 312 312 310 306 304 304 306 307 309 306 301 298 312 329 334 333 332 332 332 332 331 330 329 326 324 323 321 320 319 317 314 311 306 303 302 301 300 296 292 290 292 296 300 306 315 321 324 325 329 335 341 345 348 349 350 348 346 343 342 343 346 349 349 347 343 340 341 348 353 349 342
279 281 284 288 292 295 296 299 300 298 296 296 299 304 308 311 310 308 305 304 305 307 309 309 306 303 310 327 336 337 335 333 332 332 332 332 331 330 329 327 325 322 320 316 313 309 304 299 297 297 298 297 294 291 290 291 294 298 308 322 330 334 338 344 350 353 355 355 355 355 356 355 354 352 350 349 349 350 351 349 347 347 351 348 340 331
275 277 281 285 289 292 295 298 299 298 297 298 300 303 307 309 309 308 307 307 308 309 310 308 306 310 325 337 341 339 336 333 331 331 331 331 332 331 331 329 328 325 322 318 315 311 307 302 297 294 290 288 288 289 291 293 297 306 321 332 337 338 339 342 346 349 350 352 355 358 360 360 358 354 350 347 346 348 353 359 6 14 9 355 340 329
272 275 279 283 287 291 294 296 297 296 294 295 297 301 304 307 309 309 310 311 312 311 309 306 308 319 335 341 341 338 334 331 330 330 330 331 332 332 332 332 330 328 325 323 321 319 317 314 308 300 289 279 276 278 286 297 311 327 338 340 340 338 336 336 338 341 343 348 354 0 3 2 358 352 347 343 342 344 351 0 9 13 5 351 338 328
269 273 277 283 287 291 293 295 295 294 291 292 293 297 301 306 309 311 312 312 312 309 305 303 310 325 336 338 336 334 332 331 330 330 331 331 332 333 333 333 333 332 330 329 329 330 331 332 332 326 311 291 279 279 295 320 337 342 342 342 340 337 333 332 335 338 341 345 353 2 6 5 1 356 350 342 338 340 345 348 350 349 344 336 329 324
265 270 276 283 287 291 294 296 295 293 290 288 289 293 299 305 309 312 312 312 310 307 303 301 309 322 330 330 330 331 333 333 333 331 331 332 333 333 334 334 335 336 336 336 338 340 342 344 350 2 8 358 348 348 353 352 348 344 342 341 339 336 332 330 333 339 344 349 356 3 5 3 359 356 352 347 342 339 339 338 336 334 332 329 326 324
261 268 275 281 286 289 293 295 294 291 289 287 287 290 297 304 309 312 313 312 308 304 299 297 301 312 322 325 327 330 332 334 333 332 331 332 333 333 334 336 338 340 341 342 343 345 346 345 347 351 358 14 13 4 358 351 346 342 339 337 336 335 332 329 333 341 350 358 4 6 3 360 356 353 351 348 344 340 337 333 334 336 338 338 336 333
Height
808 806 806 806 805 803 802 801 801 800 798 797 797 796 795 794 792 791 790 789 788 786 785 784 783 781 780 779 778 777 776 775 773 772 771 770 769 768 767 766 765 764 763 762 761 760 759 758 757 756 755 753 752 751 751 750 749 748 747 746 746 745 744 744 743 742 741 741 740 739 738 737 736 736 735 734 733 733 733 733 732 732 731 731 730 730
807 806 805 804 804 802 801 801 800 800 798 797 796 795 794 792 791 790 788 787 786 786 784 783 781 781 779 778 777 776 774 773 772 771 770 769 768 766 766 765 763 762 761 761 759 758 757 756 755 754 753 752 751 750 749 748 747 746 746 745 744 743 742 742 741 740 740 739 738 737 736 735 735 734 733 732 732 731 731 731 730 730 729 729 729 729
806 805 804 803 803 802 801 799 799 799 798 796 795 794 793 791 790 788 787 786 785 784 783 782 781 779 778 776 775 774 773 772 771 770 768 767 766 765 764 763 762 761 760 759 758 756 756 754 753 752 751 750 749 748 747 746 746 745 744 743 742 741 741 740 739 738 738 737 736 736 735 734 733 732 732 731 731 730 730 729 729 728 727 727 727 727
805 804 803 802 802 801 800 799 798 797 797 796 794 793 792 790 789 787 786 785 784 783 782 781 779 778 776 775 774 773 771 770 769 768 767 766 765 764 763 761 761 759 758 757 756 755 754 753 752 751 750 748 747 746 746 745 744 743 742 741 741 740 739 738 737 737 736 735 734 734 733 732 731 731 731 730 729 728 727 727 727 727 726 726 726 725
804 804 802 802 801 800 799 798 798 796 796 794 793 791 791 789 788 786 785 784 783 781 780 779 778 776 775 773 772 771 770 769 768 767 766 765 763 762 761 760 759 758 757 756 755 754 752 751 750 749 748 747 746 745 744 743 742 741 741 740 739 739 738 737 736 735 734 734 733 732 731 731 730 730 729 728 727 726 726 726 726 725 725 724 724 723
803 803 802 802 801 799 798 797 796 796 794 793 792 791 789 788 787 786 784 783 781 780 778 777 776 775 774 772 771 770 769 767 766 765 764 763 762 761 760 759 758 756 756 754 753 752 751 750 749 747 746 745 744 743 742 741 741 740 740 739 738 737 737 736 735 734 733 733 732 731 730 729 729 728 727 727 726 725 725 724 724 724 723 723 722 722
802 802 802 801 800 799 798 796 796 795 794 792 790 789 788 787 786 784 783 781 780 779 777 776 774 773 772 771 769 768 767 766 765 764 763 762 761 760 758 757 756 755 754 753 752 751 750 749 747 746 745 743 742 741 741 740 740 739 739 738 737 736 736 735 734 733 732 731 730 730 729 728 727 726 726 725 725 724 723 723 722 722 722 721 721 720
801 801 801 801 799 797 796 796 795 794 793 791 790 788 786 785 784 783 781 780 779 777 776 774 773 771 771 769 768 767 766 765 764 763 761 760 759 758 757 756 755 754 753 752 751 750 748 747 746 745 744 742 741 741 740 739 739 738 738 737 736 735 734 733 732 731 731 730 729 728 727 727 726 725 725 724 723 723 722 721 721 721 720 720 719 719
801 800 799 799 798 797 795 794 793 793 793 791 790 788 786 784 782 781 780 778 777 776 774 773 771 770 769 769 767 766 765 764 763 762 761 759 758 756 755 754 753 752 752 751 750 749 747 746 745 744 743 742 741 740 739 738 738 738 737 736 735 734 733 732 731 730 729 728 728 727 726 726 725 724 723 723 722 721 721 721 720 720 719 719 718 718
801 800 798 797 797 796 795 792 791 791 791 791 789 788 786 784 781 779 777 776 776 775 774 772 771 769 767 766 766 765 764 762 761 761 759 758 756 755 754 754 753 752 751 749 748 747 746 746 745 744 743 742 741 740 739 738 737 736 736 735 734 733 732 731 730 729 728 727 726 725 725 724 723 723 722 721 721 720 720 719 719 718 718 717 717 717
800 799 798 796 795 795 794 792 791 790 790 789 787 786 785 784 781 779 776 774 774 773 772 771 770 769 766 765 764 764 763 761 759 758 757 756 755 754 753 753 751 750 749 748 747 746 745 744 744 743 742 741 740 739 738 737 736 735 734 733 732 731 730 729 728 727 726 725 724 723 723 722 722 721 721 720 720 719 718 718 717 717 716 716 716 715
799 797 796 795 794 793 792 791 790 789 788 787 785 783 782 782 781 780 777 774 772 771 771 769 768 768 766 764 762 762 761 760 758 756 755 754 754 753 752 751 750 749 748 747 746 745 744 743 742 742 741 740 739 738 736 736 735 734 733 732 731 730 729 728 727 726 725 724 722 722 721 721 720 720 719 719 718 717 716 716 716 715 715 715 714 714
797 796 795 794 792 792 791 790 788 787 786 786 784 782 781 780 780 779 777 774 772 771 770 767 766 765 765 764 762 761 760 758 757 756 754 754 753 752 751 750 749 748 747 746 745 744 743 742 741 740 740 738 737 736 735 734 733 732 731 730 729 728 727 726 725 724 723 722 721 721 720 719 718 718 717 717 716 716 715 715 714 714 713 713 713 713
796 795 794 792 791 790 789 788 787 786 785 784 783 781 780 779 778 777 775 772 771 770 769 767 765 763 762 762 761 760 759 757 756 755 754 753 752 751 750 749 748 747 746 745 744 742 741 741 740 739 738 737 736 735 734 733 732 731 730 729 728 727 726 725 724 723 722 721 720 719 718 717 717 716 716 715 715 714 714 713 713 712 712 711 711 711
794 793 792 791 790 789 788 787 786 784 783 782 781 780 778 777 776 775 774 771 769 768 767 766 764 762 761 761 760 759 758 757 755 754 752 751 751 750 749 748 746 746 745 743 742 741 740 740 739 737 736 736 735 734 733 732 731 730 729 728 726 725 724 723 722 721 721 720 719 718 717 716 715 715 714 714 713 713 712 712 711 711 711 710 710 710
793 792 791 789 788 787 786 786 785 783 781 780 779 778 777 775 774 773 772 770 768 767 766 765 762 760 759 758 759 758 757 756 754 753 751 749 748 748 748 746 745 744 743 742 741 740 739 738 737 736 735 734 733 732 731 731 729 728 727 726 725 724 723 722 721 720 719 718 717 716 715 715 714 713 713 712 711 711 711 710 710 709 709 709 708 708
791 791 790 788 786 785 785 784 783 781 779 778 777 777 776 775 773 772 771 769 768 766 765 764 762 760 756 756 756 757 756 755 753 752 750 748 746 746 746 746 744 742 741 740 739 738 737 736 735 734 733 732 731 731 730 729 728 727 726 725 724 723 721 721 720 718 717 716 716 715 714 713 712 712 711 711 710 710 710 709 708 708 707 707 707 706
790 789 788 787 785 783 783 781 780 779 778 777 776 775 774 773 772 771 770 768 767 766 764 763 762 760 757 755 754 755 755 754 752 751 749 747 745 745 745 744 743 741 740 738 737 736 736 735 734 733 732 731 730 729 728 727 726 725 724 723 722 721 720 719 718 717 716 715 714 713 712 711 711 710 710 709 708 708 707 707 707 706 706 705 705 705
788 788 787 785 783 781 781 780 779 777 776 775 774 773 772 771 770 769 768 767 766 765 763 761 760 758 756 755 754 754 754 754 752 750 748 746 744 743 743 742 741 740 738 736 736 735 734 733 732 731 731 730 729 728 727 726 725 724 723 722 721 720 718 717 716 715 714 714 713 712 711 711 710 709 708 707 707 706 706 706 705 705 704 704 703 703
787 786 785 784 782 780 779 778 777 776 775 774 773 772 771 769 768 767 766 765 764 762 761 760 758 756 756 755 754 753 753 752 751 749 746 744 742 741 741 741 740 738 736 735 734 733 733 732 731 730 729 728 727 726 726 725 723 722 721 720 719 718 717 716 715 714 713 712 711 711 710 709 708 707 706 706 705 705 704 704 704 703 702 702 702 701
785 784 783 783 781 779 777 776 775 774 773 772 771 770 769 768 766 765 764 762 761 759 758 757 757 756 756 755 753 752 752 751 750 747 745 742 740 739 740 739 738 736 735 733 733 732 732 731 730 729 728 727 726 725 724 723 722 721 720 719 718 717 716 715 713 712 711 711 710 709 708 707 706 706 705 704 704 703 703 702 702 701 701 701 700 700
784 782 781 781 780 778 776 774 772 772 772 771 770 769 767 766 765 763 761 760 759 758 757 756 756 756 755 754 752 751 751 751 749 747 744 741 738 737 738 738 737 735 734 732 732 731 731 730 729 728 727 726 725 724 723 722 721 720 719 718 716 716 714 713 712 711 710 709 708 707 706 706 705 704 703 702 702 701 701 701 700 700 699 699 698 698
782 780 778 778 777 776 774 772 771 771 770 770 769 768 767 766 764 762 760 759 758 758 757 756 755 754 754 752 751 750 750 749 748 746 743 740 737 736 737 737 736 735 733 732 731 731 730 729 728 727 726 725 724 723 722 721 720 719 717 716 715 714 713 712 711 710 709 708 707 706 705 704 703 702 701 701 700 699 699 698 698 698 697 697 697 696
779 777 776 776 775 774 772 771 770 769 769 768 767 766 766 765 763 762 760 759 759 757 756 755 754 753 752 751 750 749 749 748 747 745 742 740 737 736 736 736 736 734 733 732 731 730 729 727 727 726 725 724 723 722 721 720 718 717 716 715 714 713 711 710 709 708 707 706 706 705 704 703 702 701 700 699 698 697 696 696 696 696 695 695 695 695
777 776 775 775 774 773 772 771 770 769 768 767 766 765 764 763 762 761 760 759 758 756 755 754 753 752 751 750 749 748 747 747 746 744 742 739 737 736 736 736 736 734 732 731 730 729 728 727 726 725 724 723 722 721 720 719 717 716 715 714 713 711 710 709 708 707 706 705 704 703 702 701 701 699 698 697 696 695 694 694 694 694 694 693 693 693
776 776 775 774 773 772 771 771 770 769 768 766 765 764 763 762 761 759 758 757 756 756 755 753 752 751 750 749 748 747 746 745 744 743 741 739 737 736 735 736 736 734 732 731 730 729 728 726 725 724 723 722 721 720 719 718 717 716 714 713 712 711 709 708 707 706 705 704 703 702 701 701 700 698 697 696 694 693 693 692 692 692 692 692 691 691
775 774 774 773 772 771 771 770 769 768 767 766 765 763 762 761 759 758 757 756 756 755 754 753 751 750 749 748 747 746 745 744 743 742 741 739 738 736 736 736 735 734 732 731 729 729 728 726 725 723 722 721 720 719 718 717 716 715 713 712 711 710 708 707 706 705 704 703 702 701 700 699 698 697 696 695 694 693 692 691 691 691 691 690 690 690
774 773 772 772 771 770 769 768 767 766 765 764 763 762 761 760 758 757 756 755 755 754 753 752 751 750 748 747 746 745 744 743 742 741 740 739 738 737 736 736 735 734 732 731 729 728 727 726 724 723 721 720 719 718 717 716 715 714 712 711 710 709 707 706 706 704 703 702 701 700 699 698 697 696 695 694 693 692 691 691 690 690 690 689 689 689
772 771 771 770 769 768 767 766 765 764 764 763 762 761 760 759 757 756 755 754 754 753 753 752 751 750 748 746 745 744 743 742 741 740 739 739 738 737 736 736 735 734 733 731 728 726 726 725 723 722 721 720 719 717 716 715 714 712 711 710 709 708 706 706 705 703 702 701 700 699 698 697 696 695 694 693 692 691 691 690 690 689 689 689 688 688
770 769 768 767 767 766 765 764 763 763 762 761 761 760 759 758 756 755 754 754 754 753 752 751 751 749 748 746 744 742 741 740 740 740 740 739 738 737 736 736 735 734 733 731 728 726 724 723 722 721 720 719 718 717 715 714 713 711 710 709 708 706 706 705 704 702 701 701 699 698 697 696 695 694 693 693 691 691 690 689 689 688 688 688 688 687
768 767 766 765 765 764 763 763 762 761 761 760 759 758 757 756 756 755 754 753 753 752 752 751 750 749 748 746 745 742 740 739 740 740 740 739 738 736 736 735 734 733 733 732 730 727 724 721 720 720 719 718 717 716 715 713 712 711 710 708 707 706 705 704 702 701 700 699 698 697 696 695 694 693 693 692 691 690 689 689 688 688 687 687 687 686
766 765 765 764 763 763 762 761 761 760 759 758 758 757 756 755 754 754 753 752 752 751 751 750 749 748 747 746 745 743 741 740 740 740 740 739 738 736 736 735 734 733 733 733 732 730 727 723 720 718 718 717 716 715 714 713 711 710 709 708 706 705 704 703 701 700 699 698 697 696 695 694 693 692 691 691 690 689 688 688 687 687 687 686 686 685
765 764 764 763 762 762 761 760 760 759 758 757 756 756 755 754 753 753 752 752 751 751 750 749 748 747 746 746 744 743 741 740 740 740 740 739 737 736 735 735 734 733 732 732 731 731 729 726 722 719 717 716 715 714 713 712 711 710 709 707 706 704 703 702 701 699 698 696 696 695 694 693 692 691 690 689 688 688 687 687 687 686 686 686 685 684
763 763 762 762 761 761 760 759 758 757 756 756 755 755 754 753 752 752 751 751 751 750 749 749 748 746 746 744 743 742 741 740 740 740 739 738 737 736 735 734 733 732 731 731 730 729 727 726 723 721 717 715 714 713 712 711 710 709 708 707 705 704 702 701 700 698 697 696 694 693 692 691 691 690 689 688 687 686 686 686 686 686 686 685 684 684
762 762 761 761 760 759 758 758 757 756 756 755 754 753 753 752 751 751 751 750 750 749 748 748 747 746 745 744 743 741 740 739 739 739 739 738 737 736 734 734 733 732 731 730 729 727 726 724 722 721 718 715 713 711 711 710 709 708 707 706 705 703 701 700 699 697 696 695 694 692 692 691 690 689 688 687 686 686 686 685 685 685 684 684 684 683
761 761 760 760 759 758 757 756 756 755 754 754 753 752 751 751 751 750 750 749 748 748 747 746 746 745 744 743 742 741 739 738 738 738 738 737 736 735 734 733 732 731 731 729 728 726 725 722 721 719 718 716 713 711 709 708 708 707 706 705 703 702 701 700 698 697 696 694 693 692 691 691 690 689 688 687 686 686 685 684 684 683 683 683 683 682
760 760 759 759 758 757 756 756 755 754 753 753 752 751 751 750 750 749 749 748 747 746 745 745 744 743 743 742 741 740 739 738 737 737 736 736 736 735 734 732 731 731 730 729 727 726 724 722 720 718 717 716 714 711 709 707 706 706 704 703 702 701 700 699 698 696 696 694 693 692 691 691 690 689 688 687 686 686 685 684 683 683 682 682 681 681
759 759 758 757 757 756 756 755 755 754 753 752 751 751 750 750 749 748 747 746 746 745 744 743 742 741 741 740 740 739 738 737 737 736 736 735 735 734 733 732 731 730 729 728 727 725 724 722 720 718 716 715 713 712 710 708 706 705 703 702 701 700 699 698 697 696 695 694 693 692 691 690 689 688 687 686 686 685 684 683 682 682 681 681 680 680
758 758 757 757 756 756 755 754 754 753 752 751 751 750 749 749 748 747 746 745 745 744 743 742 741 740 739 739 738 738 737 736 736 736 735 735 734 733 732 731 730 729 728 727 726 725 723 722 720 719 717 715 713 711 710 708 707 705 703 701 700 699 698 697 696 696 695 694 693 691 691 690 689 687 686 686 685 684 683 682 681 681 680 680 679 679
757 757 756 756 755 755 754 753 753 752 751 751 750 749 749 748 747 746 745 744 743 742 741 741 740 739 738 738 737 737 736 736 735 735 734 734 733 733 732 731 730 728 727 726 725 724 723 721 720 719 717 716 713 711 709 708 706 705 704 702 700 698 697 696 696 695 694 693 692 691 690 689 688 687 686 685 684 683 682 681 681 680 680 679 679 679
756 756 755 755 754 754 753 752 752 751 751 750 749 748 748 747 746 745 744 743 742 741 741 740 739 738 737 737 736 736 735 735 735 735 734 734 733 732 731 730 729 728 726 725 724 723 722 721 719 718 716 715 713 711 709 708 706 706 704 702 700 698 696 695 695 694 693 692 692 691 690 689 688 686 686 684 683 682 681 681 680 679 679 679 679 678
755 755 754 753 753 752 752 751 751 750 750 749 748 748 747 746 746 745 744 742 741 741 740 739 738 737 736 736 735 735 735 735 735 734 734 733 732 731 731 730 729 727 726 725 723 722 721 720 719 717 716 715 713 711 710 708 706 705 704 702 700 698 696 695 694 693 693 692 691 690 690 688 687 686 685 684 683 682 681 680 680 679 679 678 678 678
754 753 753 752 752 751 751 750 750 749 749 748 747 747 746 746 745 744 743 742 741 740 739 739 738 737 736 735 735 735 735 734 734 733 733 732 731 731 730 729 728 727 726 724 723 721 720 719 718 717 716 715 714 712 711 708 706 705 703 702 700 698 696 694 693 692 692 691 691 690 689 688 687 686 685 684 683 682 681 680 679 679 679 678 678 677
752 752 751 751 751 750 750 749 749 748 747 747 746 746 746 745 745 744 743 742 741 740 739 738 737 736 735 734 734 734 733 733 733 732 732 731 731 730 729 728 727 726 725 724 723 721 720 718 717 716 716 715 714 712 710 708 706 705 703 701 700 699 697 695 694 692 692 691 690 690 689 688 687 686 685 684 683 681 681 680 679 679 678 678 678 677
751 751 751 750 750 749 749 748 748 747 746 746 746 745 745 744 744 743 742 741 740 739 739 738 737 736 735 734 733 733 732 732 731 731 731 731 730 729 729 728 726 726 725 724 723 722 721 719 717 715 714 714 712 711 709 708 706 705 703 701 700 699 697 696 695 694 692 691 691 690 689 688 687 686 685 683 682 681 681 680 679 679 678 678 678 677
750 750 749 749 749 748 748 747 747 746 746 745 745 745 744 743 743 742 741 741 740 739 738 737 736 736 735 734 733 732 732 731 731 730 730 729 729 728 728 727 726 725 724 723 722 721 720 719 717 715 714 712 711 709 708 707 706 705 703 702 700 699 697 696 695 694 693 692 691 690 689 688 687 686 685 683 682 681 681 680 679 679 678 678 678 677
748 748 748 748 747 747 746 746 746 745 745 744 744 744 743 743 742 741 741 740 740 739 738 737 736 736 735 734 733 733 732 731 730 730 729 729 728 727 727 726 725 724 723 722 721 719 718 717 716 714 713 712 710 708 707 706 706 704 703 702 701 699 698 697 696 695 694 692 691 690 689 688 687 686 685 684 683 682 681 680 680 679 679 678 678 677
747 747 747 746 746 746 746 745 745 744 744 743 743 743 742 742 742 741 740 740 739 738 737 737 736 735 735 734 733 733 732 732 731 730 729 729 728 727 726 725 724 723 722 721 720 718 716 715 713 712 711 711 710 708 707 706 705 704 703 702 701 700 698 697 696 695 694 693 692 691 690 689 688 686 686 684 683 682 681 681 680 680 679 678 677 677
746 746 746 746 745 745 745 744 744 743 743 742 742 742 741 741 741 741 740 739 738 738 737 736 736 735 734 734 733 733 733 732 731 731 730 729 728 727 726 725 724 722 721 719 718 716 714 712 711 711 710 709 709 708 707 706 705 704 703 702 701 700 699 697 696 694 694 693 692 691 690 689 688 687 686 685 684 683 682 681 680 680 679 678 677 676
744 744 744 744 744 744 743 743 743 742 742 741 741 741 741 741 740 740 739 739 738 737 737 736 735 735 734 734 733 733 732 732 731 731 730 729 728 727 726 725 724 722 720 718 716 715 712 711 710 709 709 709 709 708 707 706 705 704 703 702 701 700 699 697 696 695 694 693 692 691 691 690 689 688 686 686 684 683 682 681 680 679 678 677 676 676
742 743 743 743 743 743 742 742 742 741 741 741 741 740 740 740 739 739 738 738 737 736 736 736 735 734 734 733 733 733 732 732 732 731 730 730 729 728 727 726 724 723 721 719 717 716 714 712 710 709 708 709 709 708 707 706 705 704 703 702 701 700 699 698 696 695 694 693 692 691 691 690 689 688 687 686 685 683 682 681 680 678 677 677 676 675